| time (UTC) | temp F | wind direction | speed MPH | gust MPH | rain 1hr in | rain 24hr in | rain mn in | humidity % | barometer mb |
| 20260503033638 | 55 | 159 | 0.0 | 0.0 | 0.00 | 0.00 | 0.00 | 99 | 1003.3 |
| 20260503032126 | 55 | 146 | 0.0 | 0.0 | 0.00 | 0.00 | 0.00 | 99 | 1003.3 |
| 20260503030614 | 55 | 212 | 0.0 | 0.0 | 0.00 | 0.00 | 0.00 | 99 | 1003.3 |
| 20260503025102 | 55 | 214 | 0.0 | 0.0 | 0.00 | 0.00 | 0.00 | 99 | 1003.7 |
| 20260503023550 | 55 | 220 | 0.0 | 0.0 | 0.00 | 0.00 | 0.00 | 99 | 1003.7 |
| 20260503022038 | 56 | 274 | 0.0 | 0.0 | 0.00 | 0.00 | 0.00 | 99 | 1004.0 |
| 20260503020526 | 56 | 140 | 0.0 | 0.0 | 0.00 | 0.00 | 0.00 | 99 | 1004.0 |
| 20260503015014 | 56 | 98 | 0.0 | 0.0 | 0.00 | 0.00 | 0.00 | 98 | 1004.4 |
| 20260503013502 | 56 | 204 | 0.0 | 0.0 | 0.00 | 0.00 | 0.00 | 98 | 1004.7 |
| 20260503011949 | 56 | 84 | 0.0 | 0.0 | 0.00 | 0.00 | 0.00 | 98 | 1004.0 |
| 20260503010437 | 56 | 78 | 0.0 | 0.0 | 0.00 | 0.00 | 0.00 | 98 | 1004.4 |
| 20260503004926 | 56 | 60 | 0.0 | 0.0 | 0.00 | 0.00 | 0.00 | 98 | 1004.4 |
| 20260503003414 | 56 | 98 | 0.0 | 0.0 | 0.00 | 0.00 | 0.00 | 98 | 1004.7 |
| 20260503001901 | 57 | 52 | 0.0 | 0.0 | 0.00 | 0.00 | 0.00 | 98 | 1004.7 |
| 20260503000349 | 57 | 111 | 0.0 | 0.0 | 0.00 | 0.00 | 0.00 | 98 | 1005.4 |
| 20260502234837 | 57 | 300 | 0.0 | 0.0 | 0.00 | 0.00 | 0.00 | 98 | 1005.0 |
| 20260502233326 | 57 | 323 | 0.0 | 0.0 | 0.00 | 0.00 | 0.00 | 98 | 1005.4 |
| 20260502231814 | 57 | 333 | 0.0 | 0.0 | 0.00 | 0.00 | 0.00 | 98 | 1005.4 |
| 20260502230301 | 57 | 357 | 1.0 | 2.0 | 0.00 | 0.00 | 0.00 | 98 | 1005.7 |
| 20260502224749 | 57 | 286 | 0.0 | 0.0 | 0.00 | 0.00 | 0.00 | 98 | 1005.0 |
| 20260502223237 | 57 | 225 | 0.0 | 0.0 | 0.00 | 0.00 | 0.00 | 98 | 1005.4 |
| 20260502221725 | 57 | 103 | 0.0 | 0.0 | 0.00 | 0.00 | 0.00 | 97 | 1005.0 |
| 20260502220213 | 57 | 158 | 0.0 | 0.0 | 0.00 | 0.00 | 0.00 | 97 | 1005.4 |
| 20260502214702 | 57 | 180 | 0.0 | 0.0 | 0.00 | 0.00 | 0.00 | 96 | 1005.4 |
| 20260502213150 | 58 | 81 | 0.0 | 0.0 | 0.00 | 0.00 | 0.00 | 95 | 1005.4 |
| 20260502211638 | 59 | 358 | 0.0 | 0.0 | 0.00 | 0.00 | 0.00 | 93 | 1005.4 |
| 20260502210126 | 60 | 26 | 6.0 | 10.0 | 0.00 | 0.00 | 0.00 | 91 | 1005.0 |
| 20260502204614 | 63 | 259 | 6.0 | 10.0 | 0.00 | 0.00 | 0.00 | 84 | 1006.7 |
| 20260502203102 | 65 | 283 | 10.0 | 14.0 | 0.00 | 0.00 | 0.00 | 78 | 1006.4 |
| 20260502201550 | 68 | 296 | 4.0 | 12.0 | 0.00 | 0.00 | 0.00 | 76 | 1006.4 |
| 20260502200038 | 68 | 201 | 0.0 | 0.0 | 0.00 | 0.00 | 0.00 | 71 | 1005.4 |
| 20260502194526 | 68 | 159 | 2.0 | 4.0 | 0.00 | 0.00 | 0.00 | 69 | 1005.0 |
| 20260502193014 | 68 | 74 | 0.0 | 0.0 | 0.00 | 0.00 | 0.00 | 72 | 1005.4 |
| 20260502191502 | 70 | 79 | 0.0 | 0.0 | 0.00 | 0.00 | 0.00 | 70 | 1005.0 |
| 20260502185950 | 71 | 337 | 0.0 | 0.0 | 0.00 | 0.00 | 0.00 | 66 | 1004.7 |
| 20260502184438 | 72 | 1 | 0.0 | 0.0 | 0.00 | 0.00 | 0.00 | 63 | 1005.4 |
| 20260502182926 | 74 | 289 | 0.0 | 0.0 | 0.00 | 0.00 | 0.00 | 60 | 1005.0 |
| 20260502181414 | 75 | 264 | 0.0 | 0.0 | 0.00 | 0.00 | 0.00 | 54 | 1005.0 |
| 20260502164302 | 75 | 201 | 4.0 | 7.0 | 0.00 | 0.00 | 0.00 | 50 | 1006.0 |
| 20260502162750 | 75 | 204 | 7.0 | 10.0 | 0.00 | 0.00 | 0.00 | 52 | 1006.0 |
| 20260502161238 | 76 | 213 | 6.0 | 7.0 | 0.00 | 0.00 | 0.00 | 52 | 1006.4 |
| 20260502151150 | 76 | 150 | 5.0 | 7.0 | 0.00 | 0.00 | 0.00 | 52 | 1007.1 |
| 20260502122437 | 72 | 299 | 4.0 | 4.0 | 0.00 | 0.00 | 0.00 | 61 | 1009.1 |
| 20260502120926 | 72 | 308 | 1.0 | 2.0 | 0.00 | 0.00 | 0.00 | 60 | 1009.4 |
| 20260502115414 | 72 | 180 | 6.0 | 10.0 | 0.00 | 0.00 | 0.00 | 62 | 1009.8 |
| 20260502113901 | 71 | 250 | 1.0 | 4.0 | 0.00 | 0.00 | 0.00 | 63 | 1010.1 |
| 20260502112349 | 71 | 243 | 6.0 | 10.0 | 0.00 | 0.00 | 0.00 | 63 | 1010.1 |
| 20260502110838 | 72 | 322 | 2.0 | 4.0 | 0.00 | 0.00 | 0.00 | 64 | 1010.1 |
| 20260502105326 | 72 | 183 | 5.0 | 7.0 | 0.00 | 0.00 | 0.00 | 62 | 1010.1 |
| 20260502103813 | 72 | 214 | 5.0 | 10.0 | 0.00 | 0.00 | 0.00 | 60 | 1010.1 |
| 20260502102305 | 71 | 235 | 3.0 | 4.0 | 0.00 | 0.00 | 0.00 | 62 | 1010.4 |
| 20260502100749 | 70 | 278 | 3.0 | 4.0 | 0.00 | 0.00 | 0.00 | 62 | 1010.4 |
| 20260502090701 | 68 | 196 | 2.0 | 2.0 | 0.00 | 0.00 | 0.00 | 66 | 1010.8 |
| 20260502070525 | 61 | 219 | 3.0 | 4.0 | 0.00 | 0.00 | 0.00 | 67 | 1011.8 |
| 20260502065013 | 61 | 190 | 4.0 | 7.0 | 0.00 | 0.00 | 0.00 | 68 | 1011.8 |
| 20260502063501 | 59 | 198 | 7.0 | 10.0 | 0.00 | 0.00 | 0.00 | 64 | 1011.8 |
| 20260502061949 | 57 | 210 | 3.0 | 4.0 | 0.00 | 0.00 | 0.00 | 66 | 1011.8 |
| 20260502060437 | 55 | 201 | 0.0 | 0.0 | 0.00 | 0.00 | 0.00 | 70 | 1011.8 |
| 20260502054925 | 55 | 178 | 0.0 | 0.0 | 0.00 | 0.00 | 0.00 | 68 | 1011.8 |
| 20260502053413 | 54 | 250 | 0.0 | 0.0 | 0.00 | 0.00 | 0.00 | 68 | 1011.5 |
| 20260502051901 | 55 | 203 | 0.0 | 0.0 | 0.00 | 0.00 | 0.00 | 68 | 1011.8 |
| 20260502050349 | 54 | 205 | 0.0 | 0.0 | 0.00 | 0.00 | 0.00 | 65 | 1011.5 |
| 20260502044837 | 54 | 185 | 0.0 | 0.0 | 0.00 | 0.00 | 0.00 | 63 | 1011.5 |
| 20260502043325 | 54 | 196 | 0.0 | 0.0 | 0.00 | 0.00 | 0.00 | 63 | 1011.8 |
| 20260502041813 | 53 | 234 | 0.0 | 0.0 | 0.00 | 0.00 | 0.00 | 63 | 1011.5 |
| 20260502040301 | 53 | 193 | 3.0 | 4.0 | 0.00 | 0.00 | 0.00 | 62 | 1011.8 |
| 20260502034749 | 53 | 161 | 3.0 | 4.0 | 0.00 | 0.00 | 0.00 | 62 | 1011.5 |